Location: Moscow
(55.7500°N, 37.5830°E)
Time: 17:31:56
(UTC+03:00)

Transit 2A - Pass Details

Date: 04 December 2021
Orbit: 591 x 967 km, 66.7° (Epoch: 21 January)

Event Time Altitude Azimuth Distance (km) Brightness Sun altitude
Rises 05:10:09 0° 292° (WNW) 3,554 - -28.0°
Reaches altitude 10° 05:12:58 10° 303° (WNW) 2,652 - -27.6°
Exits shadow 05:17:20 29° 345° (NNW) 1,685 7.6 -27.0°
Maximum altitude 05:18:27 31° 4° (N) 1,633 7.6 -26.8°
Drops below altitude 10° 05:24:04 10° 65° (ENE) 2,714 9.6 -26.0°
Sets 05:26:59 0° 76° (ENE) 3,649 10.7 -25.6°
